Overview Statistics Trail Chart Weather Telemetry Raw packets
 

This is the latest recevied weather packets stored in our database for station/object YO8PIC-13. If no packets are shown the sender has not sent any weather packets the latest 10 day(s).

<< 21 22 23 24 25 26 27 >>
Time Temp. Humidity Pressure Rain* Wind** Luminosity Snow
1788237139 20° C 47% 1017.9 hPa - - - -
1788236540 20° C 47% 1017.6 hPa - - - -
1788235940 19.44° C 49% 1017.7 hPa - - - -
1788235339 18.89° C 49% 1017.6 hPa - - - -
1788234740 18.89° C 49% 1017.6 hPa - - - -
1788234140 18.89° C 50% 1017.7 hPa - - - -
1788233539 18.89° C 50% 1017.6 hPa - - - -
1788232939 18.89° C 50% 1017.4 hPa - - - -
1788232339 18.89° C 49% 1017.5 hPa - - - -
1788231740 18.89° C 49% 1017.5 hPa - - - -
1788231140 18.89° C 48% 1017.6 hPa - - - -
1788230539 19.44° C 49% 1017.6 hPa - - - -
1788229939 19.44° C 47% 1017.6 hPa - - - -
1788229339 19.44° C 47% 1017.6 hPa - - - -
1788228739 19.44° C 46% 1017.6 hPa - - - -
1788228139 20° C 45% 1017.6 hPa - - - -
1788227540 20° C 45% 1017.7 hPa - - - -
1788226941 20° C 44% 1017.8 hPa - - - -
1788226339 20.56° C 43% 1017.7 hPa - - - -
1788225739 20.56° C 43% 1017.8 hPa - - - -
1788225140 20.56° C 42% 1017.9 hPa - - - -
1788224539 21.11° C 41% 1018 hPa - - - -
1788223940 21.11° C 40% 1018 hPa - - - -
1788223341 21.67° C 39% 1018.1 hPa - - - -
1788222739 21.67° C 37% 1017.9 hPa - - - -

* Rain since midnight (hover to see other rain measurements)
** Current wind speed in m/s (hover to see current wind gust speed)